Location: Corocito
(10.1894°N, 67.0986°W)
Time: 10:04:20
(UTC+00:00)

Gbstr 26 Del rocket - Pass Details

Date: 29 May 2024
Orbit: 491 x 1239 km, 51.8° (Epoch: 16 June)

Event Time Altitude Azimuth Distance (km) Brightness Sun altitude
Rises 22:59:04 0° 335° (NNW) 3,631 7.8 -3.8°
Reaches altitude 10° 23:02:06 10° 343° (NNW) 2,552 6.8 -4.5°
Maximum altitude 23:07:31 36° 49° (NE) 1,188 4.3 -5.7°
Drops below altitude 10° 23:11:58 10° 116° (ESE) 2,094 5.1 -6.7°
Enters shadow 23:12:24 - 118° (ESE) 2,240 5.2 -6.8°
